This is the latest recevied weather packets stored in our database for station/object K7KAZ. If no packets are shown the sender has not sent any weather packets the latest 10 day(s).
| Time | Temp. | Humidity | Pressure | Rain* | Wind** | Luminosity | Snow |
|---|---|---|---|---|---|---|---|
| 1778027837 | 22.78° C | 28% | 1012.2 hPa | 0 mm | - | 87 W/m² | - |
| 1778027534 | 23.33° C | 27% | 1012.1 hPa | 0 mm | - | 57 W/m² | - |
| 1778027230 | 23.33° C | 27% | 1012.2 hPa | 0 mm | - | 64 W/m² | - |
| 1778026926 | 23.33° C | 26% | 1012.2 hPa | 0 mm | - | 276 W/m² | - |
| 1778026622 | 23.89° C | 26% | 1012 hPa | 0 mm | - | 303 W/m² | - |
| 1778026320 | 23.89° C | 26% | 1012.2 hPa | 0 mm | - | 303 W/m² | - |
| 1778026017 | 23.33° C | 28% | 1012 hPa | 0 mm | - | 102 W/m² | - |
| 1778025714 | 23.89° C | 28% | 1012 hPa | 0 mm | - | 333 W/m² | - |
| 1778025412 | 23.33° C | 28% | 1012 hPa | 0 mm | - | 297 W/m² | - |
| 1778025109 | 23.33° C | 28% | 1012 hPa | 0 mm | - | 346 W/m² | - |
| 1778024806 | 23.89° C | 27% | 1012.2 hPa | 0 mm | - | 297 W/m² | - |
| 1778024503 | 23.33° C | 27% | 1011.9 hPa | 0 mm | - | 349 W/m² | - |
| 1778024200 | 23.33° C | 28% | 1012.1 hPa | 0 mm | - | 336 W/m² | - |
| 1778023897 | 23.89° C | 27% | 1012 hPa | 0 mm | - | 309 W/m² | - |
| 1778023595 | 23.89° C | 28% | 1011.9 hPa | 0 mm | - | 344 W/m² | - |
| 1778023292 | 23.89° C | 27% | 1012 hPa | 0 mm | - | 372 W/m² | - |
| 1778022989 | 23.33° C | 28% | 1012.2 hPa | 0 mm | - | 402 W/m² | - |
| 1778022688 | 23.89° C | 29% | 1012.2 hPa | 0 mm | - | 321 W/m² | - |
| 1778022386 | 23.33° C | 30% | 1012.1 hPa | 0 mm | - | 385 W/m² | - |
| 1778022081 | 23.33° C | 31% | 1012 hPa | 0 mm | - | 431 W/m² | - |
| 1778021778 | 23.33° C | 30% | 1012.2 hPa | 0 mm | - | 270 W/m² | - |
| 1778021474 | 23.33° C | 30% | 1012.2 hPa | 0 mm | - | 374 W/m² | - |
| 1778021171 | 23.89° C | 28% | 1012.3 hPa | 0 mm | - | 406 W/m² | - |
| 1778020868 | 23.89° C | 28% | 1012.4 hPa | 0 mm | - | 410 W/m² | - |
| 1778020566 | 23.89° C | 29% | 1012.4 hPa | 0 mm | - | 520 W/m² | - |
* Rain latest hour (hover to see other rain measurements)
** Current wind speed in m/s (hover to see current wind gust speed)